Helicity
41 32 32 30 42 48 79 66 51 29 46 84 73 71 61 56 58 56 44 47 40 43 50 47 43 46 54 57 72 71 71 77 93 73 51 55 97 124 136 145 155 171 190
31 31 19 20 35 44 60 60 29 15 -5 50 46 42 41 43 46 47 40 31 39 44 43 48 48 39 44 64 66 75 71 67 101 129 107 71 90 127 114 129 141 155 195
40 22 20 16 -4 32 31 38 32 35 9 9 34 39 41 44 45 39 40 35 32 25 20 28 36 33 43 47 53 68 87 81 82 139 187 199 133 82 101 117 149 147 177
40 40 21 16 -4 15 18 6 -9 -15 -15 -28 -1 21 18 13 22 26 22 26 10 12 28 19 26 25 24 35 44 48 71 96 90 106 147 179 181 139 88 126 131 151 178
29 34 35 21 18 19 24 10 0 -10 -20 -25 -20 -28 -35 -31 8 15 13 17 22 39 28 30 32 38 39 46 44 51 57 72 85 89 93 122 151 170 153 93 99 142 149
9 32 36 30 31 24 23 24 20 13 -3 -8 -7 -7 -14 -29 -30 4 21 31 41 49 40 42 31 31 29 29 28 25 38 55 69 84 86 99 131 157 171 152 104 89 77
24 31 26 29 26 22 27 33 31 16 -1 -7 -1 12 16 -4 -9 -13 25 36 47 62 53 31 37 26 21 18 18 14 13 37 55 66 86 92 99 107 109 115 111 121 115
30 44 31 27 19 15 19 32 39 42 30 6 -5 -8 -8 -8 -10 -10 -10 47 75 86 60 48 40 23 19 15 14 20 25 30 46 40 76 103 107 114 126 124 109 88 107
63 68 65 64 61 57 45 32 34 53 63 66 54 34 16 -7 -17 -38 -5 20 26 65 72 68 61 52 31 23 32 37 37 40 41 46 50 83 102 116 126 135 144 143 117
78 64 92 102 92 75 70 71 61 57 58 44 64 75 80 89 69 -11 -31 -41 6 74 79 91 88 64 52 43 33 30 31 31 33 32 28 70 71 94 119 133 131 142 154
32 111 181 185 123 85 64 45 34 19 8 2 5 6 24 35 51 77 82 79 89 103 105 114 118 103 87 76 58 50 47 39 37 35 33 32 37 70 99 122 123 142 139
104 216 240 211 178 163 102 55 49 40 30 20 10 12 8 13 13 25 39 57 62 98 102 108 126 122 122 116 76 61 60 56 53 50 55 55 53 34 59 117 127 126 129
282 258 187 106 85 85 64 56 38 32 32 21 14 28 42 40 36 38 40 46 48 67 90 92 108 126 131 128 71 61 68 68 61 52 53 54 60 71 96 91 80 97 98
187 141 117 67 42 24 7 15 34 28 30 33 42 47 44 44 46 45 52 72 88 84 91 96 109 137 147 148 88 76 72 73 58 52 46 50 61 75 90 94 76 45 122
192 149 101 79 59 11 -24 -42 -18 11 19 29 21 23 45 54 41 40 48 67 82 94 116 123 131 139 150 167 119 87 86 70 51 47 50 52 60 61 61 89 66 78 88
150 111 59 40 25 0 -5 -16 -33 -23 -14 -10 11 28 37 38 46 65 83 79 84 94 119 128 136 143 142 151 101 78 85 76 58 50 53 54 47 51 51 48 42 65 45
84 89 77 51 -6 -35 -64 -95 -95 -67 -41 -3 27 45 52 60 60 72 84 91 89 107 120 117 140 143 141 115 115 80 100 91 75 59 58 59 72 57 54 49 42 75 95
124 99 50 -2 -25 -28 -38 -41 -10 -5 -2 19 46 51 52 54 58 62 71 82 91 106 104 108 119 137 142 109 111 97 118 108 85 70 68 66 64 68 43 49 69 90 110
28 14 -29 -64 -82 -85 -9 21 20 37 60 63 74 44 39 42 49 66 70 50 62 82 101 116 110 128 121 114 104 122 137 123 101 83 79 71 53 37 50 63 67 74 83
-41 -74 -78 -68 -45 27 88 85 27 34 48 56 49 36 37 44 53 47 55 68 59 60 76 94 120 104 123 117 95 115 166 139 120 100 88 74 56 34 43 36 48 59 61
-37 -14 -8 12 84 78 68 73 58 53 59 70 64 44 24 37 40 37 37 32 49 76 86 84 96 116 129 141 107 97 171 146 131 113 100 89 67 54 39 50 51 32 37
56 72 110 113 88 86 77 74 65 73 91 70 54 39 24 32 43 31 33 39 57 74 86 99 100 102 130 115 119 99 104 110 118 119 111 90 74 69 68 70 78 87 65
95 85 79 77 82 87 86 72 75 77 85 58 63 45 36 38 56 48 36 30 39 53 71 77 95 101 123 160 113 95 102 83 117 123 95 68 81 93 103 99 98 87 79
69 80 74 79 78 65 62 63 69 64 67 69 51 48 33 21 37 41 39 35 31 41 49 62 79 100 127 151 180 185 171 116 115 104 108 107 85 84 88 96 111 98 88
65 64 65 60 63 68 58 53 55 50 45 46 53 45 36 27 42 33 32 39 42 29 49 55 77 102 119 158 163 176 201 230 198 189 201 174 134 109 106 105 101 98 97
70 77 73 75 82 78 78 80 77 56 42 32 31 38 51 41 38 29 33 19 3 18 31 54 63 87 71 81 117 143 97 200 198 268 220 151 119 105 100 93 96 99 88
Wind_Speed
46 49 47 43 41 39 38 37 33 29 12 29 41 47 53 53 52 52 52 58 61 61 62 63 64 66 67 67 67 68 71 74 71 77 78 80 72 67 65 63 63 61 60
46 43 43 40 35 33 35 32 31 27 25 40 41 41 44 48 49 53 58 57 57 56 59 60 63 66 66 68 68 66 71 69 65 69 74 79 74 67 68 69 70 70 66
47 43 42 42 36 26 24 24 22 24 23 32 40 43 46 49 53 53 55 54 55 59 59 61 63 64 64 68 69 66 68 74 69 65 63 68 71 67 63 64 65 67 68
53 45 42 38 36 26 18 17 16 17 19 22 10 46 53 58 55 55 56 58 56 57 61 62 61 62 62 63 63 64 64 65 72 68 67 71 77 82 84 66 64 63 67
51 49 44 42 37 30 20 15 14 13 14 17 23 27 40 58 60 59 60 59 57 55 55 56 59 59 60 61 62 64 64 64 68 70 73 77 79 79 86 98 84 78 75
53 50 42 42 40 32 25 19 12 8 9 13 20 28 33 38 53 64 65 63 60 57 56 58 58 59 60 62 62 63 63 64 65 66 69 71 74 73 78 88 90 94 86
56 56 51 48 44 37 27 21 14 4 7 9 13 18 29 40 53 57 67 66 65 62 59 57 60 62 62 63 64 66 67 65 67 67 68 66 68 70 76 82 87 90 86
57 57 55 54 53 51 42 31 23 12 6 5 14 17 22 28 38 47 62 69 63 58 58 60 60 62 64 64 64 65 65 67 69 69 65 65 63 61 63 71 81 96 89
55 54 56 56 57 58 56 52 46 36 28 17 8 7 16 27 36 54 73 74 74 68 62 60 59 62 65 64 65 65 64 64 66 66 65 62 62 60 59 61 62 71 93
51 52 55 57 57 58 59 59 58 58 60 59 51 48 37 21 11 57 65 73 78 69 66 61 61 64 67 69 71 70 69 68 67 67 66 61 58 58 58 58 61 65 77
43 47 54 58 58 59 61 63 63 62 65 65 66 66 67 67 65 63 66 67 64 57 57 53 54 59 64 68 70 71 71 70 67 65 66 68 65 62 60 60 63 66 69
42 44 53 60 61 63 65 67 68 68 70 71 71 72 71 71 72 73 75 74 73 65 60 58 54 54 57 60 65 70 67 68 69 69 67 69 70 73 70 62 63 69 67
44 49 59 64 65 67 69 72 74 75 77 77 78 79 78 78 77 77 77 75 75 72 67 64 61 58 58 57 61 65 67 67 68 68 67 70 70 72 71 70 71 58 63
46 56 66 70 73 73 74 80 82 83 85 85 84 85 84 83 83 82 80 77 73 71 68 64 62 59 58 54 58 60 65 68 70 69 69 70 71 71 69 65 64 61 51
58 66 72 76 80 81 82 84 87 89 89 92 90 89 87 85 86 85 84 82 76 73 69 66 63 61 60 56 59 59 61 67 71 72 72 71 70 72 71 69 61 46 47
69 75 79 83 87 88 92 92 93 92 92 93 94 94 93 92 90 89 87 85 83 79 75 72 69 67 64 58 62 63 65 65 69 75 73 71 73 73 68 71 56 38 42
77 84 88 91 92 95 95 98 96 95 96 97 97 96 94 93 93 92 92 91 89 84 81 78 73 73 70 64 61 61 65 67 68 70 71 71 69 72 67 66 55 45 49
85 89 90 93 95 95 98 100 102 100 101 101 99 96 95 96 96 95 93 92 91 90 89 85 80 77 73 68 64 64 63 66 67 66 64 65 68 66 65 63 54 43 48
87 90 88 93 92 97 99 98 97 98 99 100 97 97 98 99 98 98 96 93 93 92 89 85 84 81 79 71 67 63 64 67 67 62 60 60 62 62 60 56 48 42 42
85 87 92 87 94 97 96 94 93 95 95 95 97 97 97 97 97 96 95 94 91 91 90 88 82 81 81 72 70 65 66 68 68 62 57 57 59 59 55 50 45 45 43
90 93 91 92 93 91 89 87 91 91 90 91 92 95 94 93 94 95 93 94 95 93 91 89 86 83 78 76 69 65 65 66 67 65 60 55 55 54 50 45 40 38 34
90 89 87 88 87 86 86 90 90 88 86 89 91 92 94 91 90 93 93 93 92 91 90 89 88 82 78 75 68 64 63 62 65 65 60 54 51 48 46 41 35 32 31
83 79 82 85 85 84 82 87 88 86 87 89 90 89 93 88 87 90 92 92 88 87 87 85 85 85 78 73 67 63 60 60 61 59 56 51 49 46 45 42 39 36 32
81 79 83 86 85 84 83 81 83 85 85 88 88 86 89 89 86 87 85 87 87 85 84 84 83 81 79 73 64 59 56 56 54 51 48 47 47 45 44 43 41 40 36
80 79 80 84 85 84 86 84 84 83 86 87 87 85 86 85 88 87 85 87 85 83 86 84 82 79 78 70 60 54 53 50 46 44 45 48 48 49 43 45 40 37 34
79 80 81 81 82 83 85 85 84 83 84 88 86 85 88 85 85 90 93 83 88 89 89 90 84 75 70 63 54 48 47 42 37 43 47 49 50 50 43 46 42 37 32
Wind_Direction
15 18 26 33 40 49 57 68 90 108 33 293 277 279 277 280 284 284 285 284 284 286 287 287 288 289 289 288 287 286 284 281 283 281 282 282 285 285 285 284 282 281 280
17 20 21 29 41 52 61 81 98 117 135 282 286 288 288 287 288 288 286 287 288 290 290 291 290 290 289 288 288 288 285 285 288 285 287 286 288 287 285 284 282 280 279
17 20 20 25 36 54 68 82 110 125 140 312 294 294 293 290 289 290 287 289 290 290 290 291 292 293 291 288 288 289 287 285 287 288 287 289 288 293 291 286 284 282 280
15 19 20 21 29 46 71 85 110 128 136 156 325 293 284 281 287 289 289 287 290 294 292 292 293 295 295 293 292 291 290 289 287 287 285 284 285 286 287 290 291 289 285
12 13 19 20 26 39 57 77 92 112 147 166 184 197 220 250 276 285 287 287 290 296 294 297 297 297 298 297 297 295 292 291 290 288 287 286 285 284 283 283 284 286 285
5 6 12 13 17 30 41 56 80 127 135 174 194 206 214 222 243 265 277 284 288 292 295 295 296 297 299 299 299 297 297 295 293 292 291 288 286 288 285 284 284 282 284
359 359 359 1 5 14 26 35 48 105 159 167 191 200 214 226 239 244 274 282 284 289 293 297 295 295 297 298 299 297 296 297 295 294 293 293 291 288 287 287 287 286 287
358 358 357 357 357 360 9 19 28 41 55 191 210 214 218 221 226 234 249 278 292 297 296 295 298 297 298 300 301 301 300 299 299 298 296 295 295 294 291 288 288 285 288
357 360 356 352 354 355 356 357 0 11 18 28 26 217 223 226 232 242 270 275 278 289 295 297 298 299 298 299 301 303 304 304 303 300 300 298 297 296 294 292 291 290 288
356 357 357 352 349 349 349 348 345 339 330 326 338 338 340 346 294 265 253 259 274 291 294 296 297 298 297 294 294 296 298 301 302 300 301 302 303 302 299 295 293 290 289
351 352 353 352 349 344 342 341 339 336 331 329 321 316 312 307 309 310 304 299 301 303 301 301 301 302 301 298 296 295 298 299 301 301 301 301 304 303 303 300 296 294 290
341 344 343 342 343 343 339 334 333 333 331 328 325 320 315 311 307 303 298 297 296 302 303 302 302 303 305 305 299 296 298 299 300 300 302 303 305 304 305 302 297 296 290
338 338 333 333 335 335 334 330 326 326 326 327 324 321 316 313 308 306 304 302 298 299 300 300 299 301 304 307 301 295 295 297 297 299 301 303 307 308 309 304 301 296 295
337 334 329 327 328 329 328 326 322 320 318 319 321 319 316 314 311 307 306 305 303 301 301 301 299 300 302 305 305 298 295 295 296 298 300 304 308 311 311 310 305 298 290
328 328 326 324 322 323 324 324 322 320 318 314 314 314 316 315 312 309 307 305 304 302 301 300 299 299 300 300 302 300 296 295 295 296 299 304 309 312 311 307 308 294 291
322 322 323 323 321 320 320 320 319 319 319 317 314 313 311 309 309 309 308 306 304 302 300 297 296 296 298 297 297 297 294 295 296 295 299 305 310 314 315 309 313 301 292
320 319 320 320 319 318 320 317 317 318 317 316 315 313 312 310 309 308 306 304 302 301 299 298 296 294 294 294 294 295 294 293 295 296 299 304 312 314 315 312 312 311 305
318 318 319 318 318 319 319 317 316 315 314 314 314 313 312 310 309 307 305 304 302 298 297 296 295 293 292 292 290 291 293 292 293 295 299 303 308 316 317 315 311 312 306
318 318 318 318 319 318 318 318 315 314 313 313 314 313 312 310 308 306 304 303 301 299 297 296 294 291 289 288 288 288 289 289 291 293 296 300 304 312 317 322 321 318 310
318 318 318 319 319 319 319 318 317 316 314 314 314 314 312 310 309 308 306 304 301 299 297 294 294 292 288 287 285 284 286 286 288 290 293 296 300 305 313 319 321 321 320
316 317 317 317 319 320 320 318 318 317 317 317 316 316 315 312 310 308 307 305 302 298 295 293 291 290 288 285 283 282 282 283 284 285 288 293 296 300 307 313 317 323 337
316 317 318 318 319 321 321 318 317 317 318 317 316 316 316 314 313 310 308 306 303 299 296 292 288 288 288 284 282 281 280 281 281 282 284 288 293 296 299 304 310 319 328
318 320 321 321 321 322 322 319 319 319 317 316 316 316 316 316 315 313 311 309 306 301 297 294 290 287 288 285 281 279 279 280 280 281 281 283 286 291 291 294 297 302 310
321 321 321 321 321 322 322 321 321 321 319 317 316 316 316 314 316 315 314 311 309 304 299 295 291 289 286 284 283 279 277 278 279 279 278 280 283 285 286 288 291 291 295
321 322 321 321 321 322 320 320 320 321 318 318 317 316 316 314 313 316 315 312 309 306 299 295 293 289 286 286 285 279 274 275 275 276 275 276 278 278 282 280 285 289 292
321 322 322 323 323 323 322 321 320 319 318 316 316 315 315 315 314 313 311 315 310 305 300 293 291 289 288 289 285 279 276 268 265 272 271 270 272 272 276 273 276 281 285